Location: Crescent
(42.8242°N, 73.7329°W)
Time: 11:59:19
(UTC+00:00)

Vanguard 3 - Pass Details

Date: 22 February 2026
Orbit: 507 x 3205 km, 33.4° (Epoch: 8 March)

Event Time Altitude Azimuth Distance (km) Brightness Sun altitude
Rises 00:31:57 0° 267° (W) 4,159 12.2 -22.2°
Reaches altitude 10° 00:36:16 10° 250° (WSW) 2,696 10.7 -23.0°
Maximum altitude 00:40:06 17° 211° (SSW) 1,840 9.2 -23.7°
Enters shadow 00:42:10 14° 181° (S) 1,869 8.9 -24.1°
